FW4257 Weather Reports


Display with metric or nautical units.
time (UTC)temp
F
wind
direction
speed
MPH
gust
MPH
rain 1hr
in
rain 24hr
in
rain mn
in
humidity
%
barometer
mb
20260505075714 52 271 0.0 0.0 0.00 0.00 0.00 78 1021.2
20260505075218 53 271 0.0 0.0 0.00 0.00 0.00 77 1021.1
20260505074720 53 271 0.0 0.0 0.00 0.00 0.00 77 1021.0
20260505074219 53 271 0.0 0.0 0.00 0.00 0.00 76 1021.0
20260505073717 53 271 0.0 1.0 0.00 0.00 0.00 75 1020.9
20260505073211 54 271 0.0 1.0 0.00 0.00 0.00 75 1020.8
20260505072712 54 268 0.0 0.0 0.00 0.00 0.00 74 1020.9
20260505072207 54 268 0.0 0.0 0.00 0.00 0.00 73 1020.7
20260505071711 55 268 0.0 0.0 0.00 0.00 0.00 72 1020.6
20260505071155 55 268 0.0 0.0 0.00 0.00 0.00 72 1020.6
20260505070643 55 268 0.0 0.0 0.00 0.00 0.00 71 1020.4
20260505070137 55 261 0.0 6.0 0.00 0.00 0.00 71 1020.3
20260505065624 56 253 1.0 6.0 0.00 0.00 0.00 70 1020.4
20260505065108 56 250 0.0 6.0 0.00 0.00 0.00 69 1020.3
20260505064604 57 268 0.0 3.0 0.00 0.00 0.00 69 1020.3
20260505064052 57 273 0.0 2.0 0.00 0.00 0.00 69 1020.3
20260505063545 57 265 0.0 7.0 0.00 0.00 0.00 69 1020.3
20260505063026 57 271 0.0 7.0 0.00 0.00 0.00 69 1020.2
20260505062209 57 255 0.0 2.0 0.00 0.00 0.00 69 1020.2
20260505061402 57 248 2.0 9.0 0.00 0.00 0.00 68 1020.0
20260505060902 57 255 3.0 9.0 0.00 0.00 0.00 67 1020.1
20260505060045 57 267 3.0 9.0 0.00 0.00 0.00 68 1020.1
20260505055547 57 260 3.0 8.0 0.00 0.00 0.00 67 1019.9
20260505055033 57 253 2.0 9.0 0.00 0.00 0.00 67 1019.8
20260505054521 57 226 2.0 9.0 0.00 0.01 0.00 69 1019.8
20260505054030 57 257 3.0 13.0 0.00 0.01 0.00 67 1019.7
20260505053512 58 259 4.0 13.0 0.00 0.03 0.00 68 1019.6
20260505052703 58 261 4.0 13.0 0.00 0.05 0.00 68 1019.4
20260505052156 58 271 4.0 10.0 0.00 0.06 0.00 67 1019.4
20260505051637 58 223 4.0 10.0 0.00 0.08 0.00 67 1019.4
20260505050843 59 233 2.0 10.0 0.00 0.10 0.00 67 1019.3
20260505050351 59 264 2.0 10.0 0.00 0.10 0.00 67 1019.2
20260505041401 60 242 1.0 10.0 0.00 0.10 0.00 66 1019.1
20260505040601 59 269 3.0 10.0 0.00 0.11 0.00 65 1019.0
20260505040050 60 256 1.0 10.0 0.00 0.11 0.00 65 1019.1
20260505035553 60 272 1.0 10.0 0.00 0.11 0.00 66 1019.1
20260505035043 60 252 2.0 9.0 0.00 0.11 0.00 65 1018.9
20260505034542 60 282 2.0 9.0 0.00 0.11 0.00 66 1018.9
20260505034044 60 296 1.0 8.0 0.00 0.11 0.00 64 1019.0
20260505033528 60 277 1.0 8.0 0.00 0.11 0.00 66 1019.1
20260505032724 59 281 2.0 9.0 0.00 0.11 0.00 64 1019.2
20260505032223 59 279 2.0 10.0 0.00 0.11 0.00 66 1019.4
20260505031723 59 274 2.0 10.0 0.00 0.11 0.00 66 1019.5
20260505031218 59 264 2.0 10.0 0.00 0.11 0.00 66 1019.6
20260505030710 59 257 2.0 10.0 0.00 0.11 0.00 67 1019.6
20260505030158 59 260 1.0 8.0 0.00 0.11 0.00 65 1019.7
20260505025648 59 271 1.0 10.0 0.00 0.11 0.00 68 1019.7
20260505024831 59 236 1.0 8.0 0.00 0.11 0.00 66 1019.7
20260505024341 59 256 0.0 7.0 0.00 0.11 0.00 66 1019.9
20260505023831 59 313 0.0 1.0 0.00 0.11 0.00 68 1019.9
20260505023331 59 258 0.0 7.0 0.00 0.11 0.00 68 1019.9
20260505022839 58 248 1.0 9.0 0.00 0.11 0.00 67 1020.0
20260505022342 58 289 2.0 9.0 0.00 0.11 0.00 69 1020.0
20260505020928 58 232 1.0 8.0 0.00 0.11 0.00 68 1020.3
20260505020436 58 333 1.0 8.0 0.00 0.11 0.00 69 1020.3
20260505015934 58 242 1.0 7.0 0.00 0.11 0.00 69 1020.3
20260505015425 58 273 0.0 8.0 0.00 0.11 0.00 68 1020.2
20260505014908 58 253 0.0 8.0 0.00 0.11 0.00 71 1020.2
20260505014054 58 263 1.0 12.0 0.00 0.11 0.00 73 1020.2
20260505013557 57 337 2.0 12.0 0.00 0.11 0.00 73 1020.3
20260505013037 57 261 2.0 12.0 0.00 0.11 0.00 73 1020.4
20260505012519 57 281 2.0 11.0 0.00 0.11 0.00 73 1020.3
20260505012026 57 260 2.0 11.0 0.00 0.11 0.00 73 1020.3
20260505011211 57 261 2.0 10.0 0.00 0.11 0.00 74 1020.3
20260505010651 56 254 2.0 9.0 0.00 0.11 0.00 75 1020.3
20260505005849 56 259 3.0 9.0 0.00 0.11 0.00 76 1020.3
20260505005341 56 279 2.0 9.0 0.00 0.11 0.00 76 1020.3
20260505004823 56 275 2.0 9.0 0.00 0.11 0.00 78 1020.4
20260505004307 55 323 0.0 7.0 0.00 0.11 0.00 77 1020.5
20260505003813 55 300 0.0 4.0 0.00 0.11 0.00 80 1020.5
20260505003323 55 254 1.0 7.0 0.00 0.11 0.00 78 1020.6
20260505002802 55 270 1.0 7.0 0.00 0.11 0.00 79 1020.7
20260505002249 54 290 0.0 6.0 0.00 0.11 0.00 80 1020.7
20260505001753 54 263 1.0 8.0 0.00 0.11 0.00 78 1020.8
20260505001240 55 227 1.0 8.0 0.00 0.11 0.00 81 1020.7
20260505000743 55 229 1.0 8.0 0.00 0.11 0.00 79 1020.7
20260505000251 55 246 1.0 8.0 0.00 0.11 0.00 82 1020.7
20260504235438 54 257 1.0 7.0 0.00 0.11 0.00 80 1020.8
20260504234637 54 259 1.0 7.0 0.00 0.11 0.00 81 1020.7
20260504234144 54 234 0.0 5.0 0.00 0.11 0.00 82 1020.7
20260504233336 54 246 0.0 3.0 0.00 0.11 0.00 84 1020.6
20260504232821 53 259 0.0 2.0 0.00 0.11 0.00 84 1020.6
20260504232312 53 257 0.0 4.0 0.00 0.11 0.00 85 1020.6
20260504231816 53 241 1.0 4.0 0.00 0.11 0.00 85 1020.6
20260504231304 53 243 0.0 4.0 0.00 0.11 0.00 85 1020.6
20260504230804 53 250 0.0 4.0 0.00 0.11 0.00 87 1020.5
20260504230300 53 229 1.0 0.0 0.00 0.11 0.00 87 1020.4
20260504225744 52 234 1.0 6.0 0.00 0.11 0.00 87 1020.3
20260504225234 52 252 1.0 6.0 0.00 0.11 0.00 87 1020.2
20260504224739 52 236 1.0 8.0 0.00 0.11 0.00 88 1020.2
20260504223645 52 261 1.0 8.0 0.00 0.11 0.00 89 1020.0
20260504223147 51 257 0.0 8.0 0.00 0.12 0.00 90 1020.0
20260504222639 51 273 0.0 1.0 0.00 0.12 0.00 91 1020.1
20260504222141 51 273 0.0 3.0 0.00 0.12 0.00 91 1020.1
20260504221622 51 274 0.0 0.0 0.00 0.14 0.00 91 1020.0
20260504221104 51 274 0.0 3.0 0.00 0.14 0.00 91 1019.9
20260504220559 51 275 0.0 3.0 0.00 0.15 0.00 91 1019.9
20260504215802 51 265 0.0 0.0 0.00 0.16 0.00 92 1019.7
20260504215251 51 265 0.0 6.0 0.00 0.17 0.00 92 1019.6
20260504214437 50 269 1.0 6.0 0.00 0.17 0.00 92 1019.5
20260504213927 50 270 0.0 5.0 0.00 0.18 0.00 93 1019.5
20260504213108 50 300 0.0 2.0 0.00 0.18 0.00 93 1019.4
20260504212557 50 300 0.0 1.0 0.00 0.18 0.00 93 1019.4
20260504212057 50 300 0.0 1.0 0.00 0.18 0.00 93 1019.2
20260504211602 50 300 0.0 2.0 0.00 0.18 0.00 93 1019.2
20260504211054 49 300 0.0 2.0 0.00 0.21 0.00 93 1019.0
20260504210546 49 300 0.0 1.0 0.00 0.22 0.00 93 1019.0
20260504210028 49 300 0.0 0.0 0.00 0.22 0.00 93 1018.9
20260504205528 49 300 0.0 0.0 0.00 0.23 0.00 93 1018.9
20260504205013 49 300 0.0 2.0 0.00 0.23 0.00 93 1018.8
20260504204458 49 294 0.0 0.0 0.00 0.23 0.00 92 1018.5
20260504203956 49 294 0.0 0.0 0.00 0.23 0.00 92 1018.5
20260504203504 49 294 0.0 0.0 0.00 0.23 0.00 92 1018.3
20260504202946 49 294 0.0 0.0 0.00 0.23 0.00 92 1018.3
20260504202430 49 294 0.0 2.0 0.00 0.23 0.00 92 1018.3
20260504201935 49 294 0.0 0.0 0.00 0.23 0.00 92 1018.3
20260504201436 49 294 0.0 0.0 0.00 0.23 0.00 92 1018.1
20260504200932 49 294 0.0 1.0 0.00 0.23 0.00 92 1018.0
20260504200133 49 294 0.0 2.0 0.00 0.23 0.00 92 1017.9
20260504195621 49 264 0.0 0.0 0.00 0.23 0.00 92 1017.8
20260504195104 49 264 0.0 0.0 0.00 0.23 0.00 92 1017.7
20260504194556 49 264 0.0 0.0 0.00 0.23 0.00 92 1017.6
20260504193736 50 264 0.0 0.0 0.00 0.23 0.00 92 1017.7
20260504193240 49 264 0.0 0.0 0.00 0.23 0.00 92 1017.7
20260504192740 49 258 0.0 8.0 0.00 0.23 0.00 92 1017.6
20260504192222 49 258 1.0 8.0 0.00 0.23 0.00 92 1017.6
20260504191426 49 269 0.0 8.0 0.00 0.23 0.00 92 1017.6
20260504190924 49 300 0.0 6.0 0.00 0.23 0.00 92 1017.6
20260504190417 49 311 0.0 5.0 0.00 0.23 0.00 92 1017.6
20260504185901 49 281 0.0 5.0 0.00 0.23 0.00 92 1017.6
20260504185342 49 288 0.0 0.0 0.00 0.23 0.00 92 1017.5
20260504184838 49 288 0.0 2.0 0.00 0.23 0.00 92 1017.4
20260504184334 49 288 0.0 0.0 0.00 0.23 0.00 92 1017.4
20260504183842 49 288 0.0 4.0 0.00 0.23 0.00 92 1017.3
20260504183338 49 311 0.0 2.0 0.00 0.23 0.00 92 1017.2
20260504182841 50 291 0.0 2.0 0.00 0.23 0.00 92 1017.2
20260504182347 50 286 0.0 2.0 0.00 0.23 0.00 92 1017.1
20260504181842 50 277 0.0 1.0 0.00 0.23 0.00 92 1017.1
20260504181051 50 262 0.0 0.0 0.00 0.23 0.00 92 1017.0
20260504180242 50 278 1.0 6.0 0.00 0.24 0.00 93 1016.9
20260504175732 50 265 0.0 5.0 0.00 0.24 0.00 94 1016.8
20260504175228 49 305 0.0 3.0 0.00 0.24 0.00 94 1016.8
20260504174723 49 308 0.0 2.0 0.00 0.25 0.00 95 1016.8
20260504174207 49 309 0.0 0.0 0.00 0.25 0.00 94 1016.8
20260504173353 49 309 0.0 2.0 0.00 0.25 0.00 94 1016.7
20260504172900 49 314 0.0 2.0 0.00 0.25 0.00 95 1016.6
20260504172358 49 314 0.0 0.0 0.00 0.26 0.00 95 1016.6
20260504171902 49 305 0.0 3.0 0.00 0.26 0.00 95 1016.6
20260504171404 49 326 0.0 3.0 0.00 0.26 0.00 95 1016.6
20260504170602 49 321 0.0 1.0 0.00 0.28 0.00 95 1016.5
20260504160257 49 314 0.0 3.0 0.00 0.29 0.00 95 1016.8
20260504150519 50 324 0.0 4.0 0.00 0.34 0.00 94 1017.0
20260504140613 51 311 0.0 5.0 0.00 0.48 0.00 94 1017.1
20260504130642 52 273 0.0 5.0 0.00 0.50 0.48 95 1017.2
20260504120153 53 317 0.0 0.0 0.00 0.50 0.48 96 1017.7
20260504110239 53 317 0.0 3.0 0.00 0.50 0.48 96 1017.1
20260504100602 54 308 0.0 0.0 0.00 0.50 0.48 96 1016.6
20260504081740 54 256 0.0 0.0 0.00 0.50 0.48 95 1015.4
20260504081226 54 256 0.0 0.0 0.00 0.50 0.48 95 1015.3
20260504080706 54 256 0.0 0.0 0.00 0.50 0.48 95 1015.2
20260504080210 54 256 0.0 0.0 0.00 0.50 0.48 95 1015.2